Retour au catalogue

STARLINK-5417

ActifCommunicationsVLEO
NORAD 54805·PAYLOAD·🇺🇸 United States

Lancé Dec 17, 2022 depuis Cape Canaveral Space Force Station

Loading…

Prochains Passages (prochaines 24 heures)

TLE

FraisSource: CelesTrak SupGP

Époque: Sep 15, 2026, 03:01 UTC

1 54805C 22175AZ  26258.12618056 -.00027152  00000+0 -17412-2 0  2584
2 54805  53.1579 258.6910 0001338  68.9543 252.0566 15.08030928    18

Suivez STARLINK-5417 en temps réel avec AllMySat

Download on the App Store